| time (UTC) | temp F | wind direction | speed MPH | gust MPH | rain 1hr in | rain 24hr in | rain mn in | humidity % | barometer mb |
| 20260831101855 | 143 | 163 | 3.0 | 7.0 | 0.00 | 0.00 | 0.00 | 100 | 1015.8 |
| 20260831101355 | 143 | 161 | 4.0 | 6.0 | 0.00 | 0.00 | 0.00 | 100 | 1015.8 |
| 20260831100840 | 143 | 165 | 0.0 | 6.0 | 0.00 | 0.00 | 0.00 | 100 | 1015.9 |
| 20260831100341 | 143 | 170 | 0.0 | 4.0 | 0.00 | 0.00 | 0.00 | 100 | 1015.9 |
| 20260831095831 | 143 | 170 | 0.0 | 6.0 | 0.00 | 0.00 | 0.00 | 100 | 1015.9 |
| 20260831095308 | 144 | 101 | 0.0 | 6.0 | 0.00 | 0.00 | 0.00 | 100 | 1015.9 |
| 20260831095037 | 144 | 199 | 1.0 | 5.0 | 0.00 | 0.00 | 0.00 | 100 | 1015.9 |
| 20260831094304 | 144 | 174 | 0.0 | 7.0 | 0.00 | 0.00 | 0.00 | 100 | 1015.9 |
| 20260831094028 | 144 | 174 | 2.0 | 7.0 | 0.00 | 0.00 | 0.00 | 100 | 1015.8 |
| 20260831093230 | 143 | 196 | 0.0 | 6.0 | 0.00 | 0.00 | 0.00 | 100 | 1015.9 |
| 20260831092730 | 144 | 213 | 0.0 | 5.0 | 0.00 | 0.00 | 0.00 | 100 | 1015.9 |
| 20260831092230 | 144 | 133 | 0.0 | 5.0 | 0.00 | 0.00 | 0.00 | 100 | 1015.8 |
| 20260831091728 | 144 | 206 | 0.0 | 6.0 | 0.00 | 0.00 | 0.00 | 100 | 1015.8 |
| 20260831091444 | 143 | 170 | 0.0 | 6.0 | 0.00 | 0.00 | 0.00 | 100 | 1015.7 |
| 20260831090940 | 143 | 154 | 0.0 | 9.0 | 0.00 | 0.00 | 0.00 | 100 | 1015.6 |
| 20260831090208 | 143 | 161 | 0.0 | 11.0 | 0.00 | 0.00 | 0.00 | 100 | 1015.7 |
| 20260831085708 | 143 | 208 | 3.0 | 11.0 | 0.00 | 0.00 | 0.00 | 100 | 1015.7 |
| 20260831085429 | 144 | 177 | 4.0 | 9.0 | 0.00 | 0.00 | 0.00 | 100 | 1015.8 |
| 20260831084658 | 144 | 150 | 1.0 | 10.0 | 0.00 | 0.00 | 0.00 | 100 | 1015.8 |
| 20260831084156 | 144 | 191 | 5.0 | 10.0 | 0.00 | 0.00 | 0.00 | 100 | 1015.8 |
| 20260831083656 | 144 | 111 | 2.0 | 7.0 | 0.00 | 0.00 | 0.00 | 100 | 1015.8 |
| 20260831083155 | 144 | 164 | 2.0 | 7.0 | 0.00 | 0.00 | 0.00 | 100 | 1015.8 |
| 20260831082656 | 144 | 165 | 4.0 | 6.0 | 0.00 | 0.00 | 0.00 | 100 | 1015.9 |
| 20260831082157 | 144 | 140 | 0.0 | 5.0 | 0.00 | 0.00 | 0.00 | 100 | 1015.9 |
| 20260831081643 | 144 | 160 | 1.0 | 9.0 | 0.00 | 0.00 | 0.00 | 100 | 1015.9 |
| 20260831081131 | 144 | 158 | 2.0 | 9.0 | 0.00 | 0.00 | 0.00 | 100 | 1016.0 |
| 20260831080632 | 144 | 143 | 2.0 | 6.0 | 0.00 | 0.00 | 0.00 | 100 | 1016.0 |
| 20260831080132 | 144 | 135 | 0.0 | 5.0 | 0.00 | 0.00 | 0.00 | 100 | 1016.0 |
| 20260831075630 | 144 | 149 | 0.0 | 6.0 | 0.00 | 0.00 | 0.00 | 100 | 1015.9 |
| 20260831075118 | 143 | 151 | 1.0 | 6.0 | 0.00 | 0.00 | 0.00 | 100 | 1015.9 |
| 20260831074618 | 143 | 205 | 1.0 | 10.0 | 0.00 | 0.00 | 0.00 | 100 | 1015.9 |
| 20260831074116 | 143 | 177 | 5.0 | 10.0 | 0.00 | 0.00 | 0.00 | 100 | 1015.9 |
| 20260831073618 | 143 | 82 | 0.0 | 8.0 | 0.00 | 0.00 | 0.00 | 100 | 1015.9 |
| 20260831073311 | 143 | 174 | 0.0 | 8.0 | 0.00 | 0.00 | 0.00 | 100 | 1015.9 |
| 20260831072538 | 144 | 160 | 4.0 | 8.0 | 0.00 | 0.00 | 0.00 | 100 | 1015.9 |
| 20260831072036 | 144 | 156 | 4.0 | 8.0 | 0.00 | 0.00 | 0.00 | 100 | 1016.0 |
| 20260831071807 | 144 | 142 | 0.0 | 6.0 | 0.00 | 0.00 | 0.00 | 100 | 1015.9 |
| 20260831071037 | 144 | 194 | 0.0 | 6.0 | 0.00 | 0.00 | 0.00 | 100 | 1016.0 |
| 20260831070537 | 144 | 149 | 2.0 | 10.0 | 0.00 | 0.00 | 0.00 | 100 | 1015.9 |
| 20260831070014 | 144 | 175 | 3.0 | 10.0 | 0.00 | 0.00 | 0.00 | 100 | 1015.9 |
| 20260831065514 | 144 | 139 | 0.0 | 7.0 | 0.00 | 0.00 | 0.00 | 100 | 1016.0 |
| 20260831064958 | 144 | 150 | 5.0 | 7.0 | 0.00 | 0.00 | 0.00 | 100 | 1015.9 |
| 20260831064456 | 144 | 177 | 0.0 | 7.0 | 0.00 | 0.00 | 0.00 | 100 | 1016.0 |
| 20260831063956 | 144 | 194 | 3.0 | 5.0 | 0.00 | 0.00 | 0.00 | 100 | 1016.0 |
| 20260831063730 | 144 | 167 | 0.0 | 4.0 | 0.00 | 0.00 | 0.00 | 100 | 1016.0 |
| 20260831063216 | 144 | 127 | 0.0 | 5.0 | 0.00 | 0.00 | 0.00 | 100 | 1016.1 |
| 20260831062441 | 144 | 123 | 2.0 | 5.0 | 0.00 | 0.00 | 0.00 | 100 | 1016.1 |
| 20260831061938 | 144 | 142 | 0.0 | 9.0 | 0.00 | 0.00 | 0.00 | 100 | 1015.9 |
| 20260831061414 | 144 | 149 | 2.0 | 9.0 | 0.00 | 0.00 | 0.00 | 100 | 1015.9 |
| 20260831061144 | 145 | 108 | 0.0 | 3.0 | 0.00 | 0.00 | 0.00 | 100 | 1015.8 |
| 20260831060410 | 145 | 153 | 0.0 | 0.0 | 0.00 | 0.00 | 0.00 | 100 | 1015.8 |
| 20260831060340 | 145 | 153 | 0.0 | 0.0 | 0.00 | 0.00 | 0.00 | 100 | 1015.8 |
| 20260831055557 | 145 | 153 | 0.0 | 5.0 | 0.00 | 0.00 | 0.00 | 100 | 1015.8 |
| 20260831054811 | 145 | 153 | 0.0 | 6.0 | 0.00 | 0.00 | 0.00 | 100 | 1015.7 |
| 20260831054308 | 145 | 142 | 1.0 | 6.0 | 0.00 | 0.00 | 0.00 | 100 | 1015.7 |
| 20260831053800 | 145 | 132 | 0.0 | 4.0 | 0.00 | 0.00 | 0.00 | 100 | 1015.6 |
| 20260831053256 | 145 | 154 | 2.0 | 6.0 | 0.00 | 0.00 | 0.00 | 100 | 1015.6 |
| 20260831052755 | 145 | 161 | 2.0 | 6.0 | 0.00 | 0.00 | 0.00 | 100 | 1015.6 |
| 20260831052248 | 145 | 113 | 0.0 | 8.0 | 0.00 | 0.00 | 0.00 | 100 | 1015.4 |
| 20260831051747 | 145 | 113 | 0.0 | 8.0 | 0.00 | 0.00 | 0.00 | 100 | 1015.4 |
| 20260831051509 | 145 | 174 | 0.0 | 6.0 | 0.00 | 0.00 | 0.00 | 100 | 1015.3 |
| 20260831050736 | 145 | 160 | 2.0 | 6.0 | 0.00 | 0.00 | 0.00 | 100 | 1015.3 |
| 20260831050507 | 145 | 165 | 0.0 | 5.0 | 0.00 | 0.00 | 0.00 | 100 | 1015.3 |
| 20260831045728 | 145 | 177 | 1.0 | 5.0 | 0.00 | 0.00 | 0.00 | 100 | 1015.2 |
| 20260831045218 | 145 | 126 | 4.0 | 7.0 | 0.00 | 0.00 | 0.00 | 100 | 1015.2 |
| 20260831044716 | 145 | 163 | 2.0 | 7.0 | 0.00 | 0.00 | 0.00 | 100 | 1015.1 |
| 20260831044210 | 145 | 201 | 0.0 | 7.0 | 0.00 | 0.00 | 0.00 | 100 | 1015.1 |
| 20260831043657 | 145 | 171 | 4.0 | 11.0 | 0.00 | 0.00 | 0.00 | 100 | 1015.1 |
| 20260831043157 | 145 | 180 | 3.0 | 11.0 | 0.00 | 0.00 | 0.00 | 100 | 1015.2 |
| 20260831042657 | 145 | 149 | 2.0 | 9.0 | 0.00 | 0.00 | 0.00 | 100 | 1015.3 |
| 20260831042428 | 145 | 154 | 5.0 | 9.0 | 0.00 | 0.00 | 0.00 | 100 | 1015.3 |
| 20260831041701 | 145 | 136 | 4.0 | 8.0 | 0.00 | 0.00 | 0.00 | 100 | 1015.2 |
| 20260831041657 | 145 | 157 | 5.0 | 8.0 | 0.00 | 0.00 | 0.00 | 100 | 1015.2 |
| 20260831040657 | 145 | 157 | 4.0 | 8.0 | 0.00 | 0.00 | 0.00 | 100 | 1015.2 |
| 20260831040157 | 145 | 130 | 3.0 | 7.0 | 0.00 | 0.00 | 0.00 | 100 | 1015.2 |
| 20260831035927 | 146 | 203 | 4.0 | 8.0 | 0.00 | 0.00 | 0.00 | 100 | 1015.2 |
| 20260831035157 | 146 | 130 | 5.0 | 10.0 | 0.00 | 0.00 | 0.00 | 100 | 1015.1 |
| 20260831034657 | 146 | 129 | 6.0 | 10.0 | 0.00 | 0.00 | 0.00 | 100 | 1015.0 |
| 20260831034157 | 145 | 149 | 4.0 | 10.0 | 0.00 | 0.00 | 0.00 | 100 | 1015.0 |
| 20260831033927 | 145 | 150 | 4.0 | 10.0 | 0.00 | 0.00 | 0.00 | 100 | 1014.8 |
| 20260831033428 | 146 | 157 | 2.0 | 10.0 | 0.00 | 0.00 | 0.00 | 100 | 1014.8 |
| 20260831032656 | 146 | 170 | 2.0 | 10.0 | 0.00 | 0.00 | 0.00 | 100 | 1014.7 |
| 20260831032157 | 146 | 181 | 4.0 | 10.0 | 0.00 | 0.00 | 0.00 | 100 | 1014.6 |
| 20260831031657 | 146 | 139 | 2.0 | 8.0 | 0.00 | 0.00 | 0.00 | 100 | 1014.5 |
| 20260831031157 | 146 | 132 | 0.0 | 9.0 | 0.00 | 0.00 | 0.00 | 100 | 1014.5 |
| 20260831030657 | 146 | 133 | 3.0 | 10.0 | 0.00 | 0.00 | 0.00 | 100 | 1014.3 |
| 20260831030428 | 146 | 149 | 1.0 | 10.0 | 0.00 | 0.00 | 0.00 | 100 | 1014.2 |
| 20260831025658 | 146 | 127 | 4.0 | 11.0 | 0.00 | 0.00 | 0.00 | 100 | 1014.3 |
| 20260831025427 | 146 | 135 | 6.0 | 11.0 | 0.00 | 0.00 | 0.00 | 100 | 1014.2 |
| 20260831024657 | 146 | 168 | 3.0 | 10.0 | 0.00 | 0.00 | 0.00 | 100 | 1014.1 |
| 20260831024157 | 146 | 153 | 4.0 | 10.0 | 0.00 | 0.00 | 0.00 | 100 | 1014.1 |
| 20260831023656 | 146 | 172 | 5.0 | 10.0 | 0.00 | 0.00 | 0.00 | 100 | 1014.0 |
| 20260831023156 | 146 | 140 | 4.0 | 10.0 | 0.00 | 0.00 | 0.00 | 100 | 1014.0 |
| 20260831022656 | 146 | 135 | 4.0 | 12.0 | 0.00 | 0.00 | 0.00 | 100 | 1013.9 |
| 20260831022156 | 146 | 158 | 4.0 | 12.0 | 0.00 | 0.00 | 0.00 | 100 | 1013.8 |
| 20260831021656 | 146 | 143 | 5.0 | 11.0 | 0.00 | 0.00 | 0.00 | 100 | 1013.6 |
| 20260831021150 | 146 | 139 | 1.0 | 11.0 | 0.00 | 0.00 | 0.00 | 100 | 1013.5 |
| 20260831020650 | 146 | 164 | 2.0 | 12.0 | 0.00 | 0.00 | 0.00 | 100 | 1013.4 |
| 20260831020150 | 147 | 112 | 5.0 | 12.0 | 0.00 | 0.00 | 0.00 | 100 | 1013.4 |
| 20260831015643 | 147 | 161 | 3.0 | 10.0 | 0.00 | 0.00 | 0.00 | 100 | 1013.3 |
| 20260831015142 | 146 | 90 | 0.0 | 0.0 | 0.00 | 0.00 | 0.00 | 100 | 1013.1 |
| 20260831014626 | 147 | 90 | 0.0 | 0.0 | 0.00 | 0.00 | 0.00 | 100 | 1013.0 |
| 20260831014113 | 147 | 90 | 0.0 | 2.0 | 0.00 | 0.00 | 0.00 | 100 | 1012.9 |
| 20260831013616 | 147 | 130 | 0.0 | 0.0 | 0.00 | 0.00 | 0.00 | 100 | 1012.6 |
| 20260831013612 | 147 | 90 | 0.0 | 2.0 | 0.00 | 0.00 | 0.00 | 100 | 1012.9 |
| 20260831012830 | 147 | 130 | 0.0 | 5.0 | 0.00 | 0.00 | 0.00 | 100 | 1012.6 |
| 20260831012037 | 147 | 130 | 1.0 | 5.0 | 0.00 | 0.00 | 0.00 | 100 | 1012.6 |
| 20260831011528 | 147 | 129 | 0.0 | 4.0 | 0.00 | 0.00 | 0.00 | 100 | 1012.5 |
| 20260831011028 | 147 | 136 | 0.0 | 4.0 | 0.00 | 0.00 | 0.00 | 100 | 1012.5 |
| 20260831010500 | 147 | 149 | 0.0 | 7.0 | 0.00 | 0.00 | 0.00 | 100 | 1012.6 |
| 20260831010224 | 147 | 149 | 0.0 | 7.0 | 0.00 | 0.00 | 0.00 | 100 | 1012.5 |
| 20260831005427 | 147 | 174 | 0.0 | 5.0 | 0.00 | 0.00 | 0.00 | 100 | 1012.6 |
| 20260831004911 | 147 | 202 | 2.0 | 5.0 | 0.00 | 0.00 | 0.00 | 100 | 1012.6 |
| 20260831004412 | 147 | 147 | 0.0 | 7.0 | 0.00 | 0.00 | 0.00 | 100 | 1012.6 |
| 20260831003852 | 147 | 147 | 3.0 | 7.0 | 0.00 | 0.00 | 0.00 | 100 | 1012.5 |
| 20260831003351 | 147 | 129 | 3.0 | 6.0 | 0.00 | 0.00 | 0.00 | 100 | 1012.4 |
| 20260831002847 | 147 | 156 | 3.0 | 9.0 | 0.00 | 0.00 | 0.00 | 100 | 1012.4 |
| 20260831002330 | 147 | 104 | 4.0 | 9.0 | 0.00 | 0.00 | 0.00 | 100 | 1012.4 |
| 20260831001831 | 147 | 153 | 0.0 | 7.0 | 0.00 | 0.00 | 0.00 | 100 | 1012.3 |
| 20260831001309 | 148 | 153 | 0.0 | 7.0 | 0.00 | 0.00 | 0.00 | 100 | 1012.3 |
| 20260831000744 | 148 | 139 | 0.0 | 7.0 | 0.00 | 0.00 | 0.00 | 100 | 1012.3 |
| 20260831000242 | 148 | 136 | 1.0 | 8.0 | 0.00 | 0.00 | 0.00 | 100 | 1012.2 |
| 20260830235743 | 148 | 127 | 1.0 | 8.0 | 0.00 | 0.00 | 0.00 | 100 | 1012.3 |
| 20260830235234 | 148 | 112 | 4.0 | 6.0 | 0.00 | 0.00 | 0.00 | 100 | 1012.3 |
| 20260830234736 | 148 | 116 | 0.0 | 6.0 | 0.00 | 0.00 | 0.00 | 100 | 1012.3 |
| 20260830234233 | 148 | 153 | 0.0 | 9.0 | 0.00 | 0.00 | 0.00 | 100 | 1012.4 |
| 20260830234229 | 148 | 116 | 4.0 | 8.0 | 0.00 | 0.00 | 0.00 | 100 | 1012.3 |
| 20260830233446 | 148 | 146 | 3.0 | 8.0 | 0.00 | 0.00 | 0.00 | 100 | 1012.3 |
| 20260830232945 | 148 | 151 | 0.0 | 4.0 | 0.00 | 0.00 | 0.00 | 100 | 1012.2 |
| 20260830232212 | 149 | 230 | 1.0 | 10.0 | 0.00 | 0.00 | 0.00 | 100 | 1012.3 |
| 20260830231711 | 148 | 144 | 3.0 | 10.0 | 0.00 | 0.00 | 0.00 | 100 | 1012.4 |
| 20260830231210 | 149 | 180 | 0.0 | 8.0 | 0.00 | 0.00 | 0.00 | 100 | 1012.3 |
| 20260830230710 | 149 | 210 | 1.0 | 8.0 | 0.00 | 0.00 | 0.00 | 100 | 1012.3 |
| 20260830230207 | 149 | 125 | 3.0 | 9.0 | 0.00 | 0.00 | 0.00 | 100 | 1012.3 |
| 20260830225937 | 148 | 147 | 0.0 | 9.0 | 0.00 | 0.00 | 0.00 | 100 | 1012.3 |
| 20260830225158 | 148 | 143 | 6.0 | 9.0 | 0.00 | 0.00 | 0.00 | 100 | 1012.4 |
| 20260830224659 | 149 | 201 | 1.0 | 9.0 | 0.00 | 0.00 | 0.00 | 100 | 1012.5 |
| 20260830224143 | 149 | 192 | 5.0 | 7.0 | 0.00 | 0.00 | 0.00 | 100 | 1012.5 |
| 20260830223646 | 149 | 143 | 3.0 | 8.0 | 0.00 | 0.00 | 0.00 | 100 | 1012.5 |
| 20260830223642 | 149 | 147 | 2.0 | 8.0 | 0.00 | 0.00 | 0.00 | 100 | 1012.5 |
| 20260830222622 | 149 | 160 | 2.0 | 8.0 | 0.00 | 0.00 | 0.00 | 100 | 1012.5 |
| 20260830222113 | 149 | 130 | 2.0 | 11.0 | 0.00 | 0.00 | 0.00 | 100 | 1012.5 |
| 20260830221559 | 149 | 150 | 6.0 | 11.0 | 0.00 | 0.00 | 0.00 | 100 | 1012.6 |
| 20260830221059 | 149 | 129 | 0.0 | 9.0 | 0.00 | 0.00 | 0.00 | 100 | 1012.5 |
| 20260830220826 | 149 | 181 | 2.0 | 9.0 | 0.00 | 0.00 | 0.00 | 100 | 1012.8 |
| 20260830220056 | 149 | 122 | 2.0 | 8.0 | 0.00 | 0.00 | 0.00 | 100 | 1012.8 |
| 20260830215556 | 149 | 185 | 2.0 | 8.0 | 0.00 | 0.00 | 0.00 | 100 | 1012.8 |
| 20260830215058 | 148 | 153 | 0.0 | 10.0 | 0.00 | 0.00 | 0.00 | 100 | 1012.8 |
| 20260830214557 | 149 | 151 | 4.0 | 10.0 | 0.00 | 0.00 | 0.00 | 100 | 1012.9 |
| 20260830214055 | 149 | 194 | 1.0 | 9.0 | 0.00 | 0.00 | 0.00 | 100 | 1013.0 |
| 20260830213557 | 149 | 147 | 0.0 | 9.0 | 0.00 | 0.00 | 0.00 | 100 | 1013.0 |
| 20260830213056 | 149 | 213 | 6.0 | 8.0 | 0.00 | 0.00 | 0.00 | 100 | 1013.1 |
| 20260830212556 | 149 | 226 | 4.0 | 8.0 | 0.00 | 0.00 | 0.00 | 100 | 1013.2 |
| 20260830212057 | 148 | 120 | 1.0 | 8.0 | 0.00 | 0.00 | 0.00 | 100 | 1013.3 |
| 20260830211557 | 149 | 139 | 3.0 | 9.0 | 0.00 | 0.00 | 0.00 | 100 | 1013.4 |
| 20260830211056 | 149 | 146 | 5.0 | 9.0 | 0.00 | 0.00 | 0.00 | 100 | 1013.5 |
| 20260830210556 | 149 | 163 | 4.0 | 9.0 | 0.00 | 0.00 | 0.00 | 100 | 1013.6 |
| 20260830210326 | 148 | 125 | 4.0 | 9.0 | 0.00 | 0.00 | 0.00 | 100 | 1013.8 |
| 20260830205556 | 148 | 151 | 5.0 | 9.0 | 0.00 | 0.00 | 0.00 | 100 | 1013.8 |
| 20260830205056 | 148 | 154 | 3.0 | 10.0 | 0.00 | 0.00 | 0.00 | 100 | 1013.9 |
| 20260830204557 | 149 | 151 | 3.0 | 10.0 | 0.00 | 0.00 | 0.00 | 100 | 1013.9 |
| 20260830204057 | 148 | 216 | 4.0 | 10.0 | 0.00 | 0.00 | 0.00 | 100 | 1014.0 |
| 20260830203557 | 149 | 150 | 0.0 | 7.0 | 0.00 | 0.00 | 0.00 | 100 | 1014.1 |
| 20260830203057 | 149 | 142 | 4.0 | 7.0 | 0.00 | 0.00 | 0.00 | 100 | 1014.1 |
| 20260830202556 | 149 | 160 | 6.0 | 11.0 | 0.00 | 0.00 | 0.00 | 100 | 1014.2 |
| 20260830202056 | 149 | 194 | 3.0 | 11.0 | 0.00 | 0.00 | 0.00 | 100 | 1014.2 |
| 20260830201556 | 148 | 156 | 5.0 | 8.0 | 0.00 | 0.00 | 0.00 | 100 | 1014.3 |
| 20260830201056 | 148 | 174 | 4.0 | 12.0 | 0.00 | 0.00 | 0.00 | 100 | 1014.4 |
| 20260830200556 | 148 | 139 | 6.0 | 12.0 | 0.00 | 0.00 | 0.00 | 100 | 1014.5 |
| 20260830200056 | 149 | 177 | 1.0 | 8.0 | 0.00 | 0.00 | 0.00 | 100 | 1014.5 |
| 20260830195555 | 148 | 154 | 4.0 | 10.0 | 0.00 | 0.00 | 0.00 | 100 | 1014.6 |
| 20260830195056 | 148 | 105 | 0.0 | 10.0 | 0.00 | 0.00 | 0.00 | 100 | 1014.6 |
| 20260830194827 | 148 | 112 | 4.0 | 10.0 | 0.00 | 0.00 | 0.00 | 100 | 1014.8 |
| 20260830194055 | 148 | 133 | 5.0 | 9.0 | 0.00 | 0.00 | 0.00 | 100 | 1014.8 |
| 20260830193826 | 148 | 112 | 5.0 | 8.0 | 0.00 | 0.00 | 0.00 | 100 | 1015.0 |
| 20260830193057 | 148 | 146 | 0.0 | 9.0 | 0.00 | 0.00 | 0.00 | 100 | 1015.0 |
| 20260830192557 | 148 | 142 | 6.0 | 11.0 | 0.00 | 0.00 | 0.00 | 100 | 1015.1 |
| 20260830192057 | 148 | 88 | 7.0 | 11.0 | 0.00 | 0.00 | 0.00 | 100 | 1015.2 |
| 20260830191556 | 148 | 137 | 0.0 | 11.0 | 0.00 | 0.00 | 0.00 | 100 | 1015.3 |
| 20260830191055 | 148 | 157 | 7.0 | 12.0 | 0.00 | 0.00 | 0.00 | 100 | 1015.3 |
| 20260830190556 | 148 | 189 | 2.0 | 12.0 | 0.00 | 0.00 | 0.00 | 100 | 1015.4 |
| 20260830190056 | 148 | 180 | 5.0 | 11.0 | 0.00 | 0.00 | 0.00 | 100 | 1015.6 |
| 20260830185827 | 148 | 265 | 5.0 | 10.0 | 0.00 | 0.00 | 0.00 | 100 | 1015.7 |
| 20260830185327 | 148 | 153 | 4.0 | 8.0 | 0.00 | 0.00 | 0.00 | 100 | 1015.8 |
| 20260830184826 | 148 | 127 | 4.0 | 8.0 | 0.00 | 0.00 | 0.00 | 100 | 1015.7 |
| 20260830184056 | 148 | 189 | 4.0 | 9.0 | 0.00 | 0.00 | 0.00 | 100 | 1015.8 |
| 20260830183555 | 148 | 158 | 0.0 | 9.0 | 0.00 | 0.00 | 0.00 | 100 | 1015.9 |
| 20260830183056 | 147 | 146 | 4.0 | 10.0 | 0.00 | 0.00 | 0.00 | 100 | 1016.0 |
| 20260830182828 | 148 | 120 | 0.0 | 11.0 | 0.00 | 0.00 | 0.00 | 100 | 1016.1 |
| 20260830182056 | 147 | 123 | 1.0 | 11.0 | 0.00 | 0.00 | 0.00 | 100 | 1016.2 |
| 20260830181553 | 147 | 132 | 0.0 | 10.0 | 0.00 | 0.00 | 0.00 | 100 | 1016.2 |
| 20260830181045 | 147 | 189 | 6.0 | 10.0 | 0.00 | 0.00 | 0.00 | 100 | 1016.4 |
| 20260830180814 | 147 | 135 | 4.0 | 7.0 | 0.00 | 0.00 | 0.00 | 100 | 1016.5 |
| 20260830180043 | 147 | 104 | 5.0 | 7.0 | 0.00 | 0.00 | 0.00 | 100 | 1016.6 |
| 20260830175805 | 147 | 150 | 5.0 | 8.0 | 0.00 | 0.00 | 0.00 | 100 | 1016.8 |
| 20260830175036 | 147 | 161 | 4.0 | 8.0 | 0.00 | 0.00 | 0.00 | 100 | 1016.9 |
| 20260830174527 | 147 | 122 | 5.0 | 10.0 | 0.00 | 0.00 | 0.00 | 100 | 1017.0 |
| 20260830174018 | 147 | 157 | 5.0 | 10.0 | 0.00 | 0.00 | 0.00 | 100 | 1017.1 |
| 20260830173518 | 148 | 171 | 3.0 | 10.0 | 0.00 | 0.00 | 0.00 | 100 | 1017.1 |
| 20260830173017 | 147 | 115 | 1.0 | 10.0 | 0.00 | 0.00 | 0.00 | 100 | 1017.2 |
| 20260830172503 | 148 | 187 | 7.0 | 10.0 | 0.00 | 0.00 | 0.00 | 100 | 1017.3 |
| 20260830172002 | 148 | 153 | 5.0 | 8.0 | 0.00 | 0.00 | 0.00 | 100 | 1017.3 |
| 20260830171503 | 147 | 78 | 0.0 | 10.0 | 0.00 | 0.00 | 0.00 | 100 | 1017.5 |
| 20260830170957 | 148 | 156 | 4.0 | 10.0 | 0.00 | 0.00 | 0.00 | 100 | 1017.5 |
| 20260830170457 | 148 | 151 | 5.0 | 8.0 | 0.00 | 0.00 | 0.00 | 100 | 1017.5 |
| 20260830165957 | 148 | 150 | 3.0 | 7.0 | 0.00 | 0.00 | 0.00 | 100 | 1017.5 |
| 20260830165457 | 147 | 208 | 3.0 | 10.0 | 0.00 | 0.00 | 0.00 | 100 | 1017.5 |
| 20260830164957 | 147 | 172 | 2.0 | 10.0 | 0.00 | 0.00 | 0.00 | 100 | 1017.6 |
| 20260830164457 | 148 | 195 | 4.0 | 8.0 | 0.00 | 0.00 | 0.00 | 100 | 1017.6 |
| 20260830163956 | 148 | 95 | 0.0 | 7.0 | 0.00 | 0.00 | 0.00 | 100 | 1017.7 |
| 20260830163457 | 147 | 150 | 4.0 | 8.0 | 0.00 | 0.00 | 0.00 | 100 | 1017.7 |
| 20260830162956 | 147 | 135 | 4.0 | 8.0 | 0.00 | 0.00 | 0.00 | 100 | 1017.8 |
| 20260830162456 | 147 | 206 | 3.0 | 8.0 | 0.00 | 0.00 | 0.00 | 100 | 1017.7 |
| 20260830161957 | 147 | 151 | 3.0 | 8.0 | 0.00 | 0.00 | 0.00 | 100 | 1017.7 |
| 20260830161726 | 147 | 216 | 1.0 | 7.0 | 0.00 | 0.00 | 0.00 | 100 | 1017.7 |
| 20260830160955 | 147 | 195 | 1.0 | 9.0 | 0.00 | 0.00 | 0.00 | 100 | 1017.7 |
| 20260830160455 | 147 | 227 | 2.0 | 9.0 | 0.00 | 0.00 | 0.00 | 100 | 1017.7 |
| 20260830155953 | 147 | 142 | 3.0 | 7.0 | 0.00 | 0.00 | 0.00 | 100 | 1017.7 |
| 20260830155724 | 147 | 177 | 3.0 | 7.0 | 0.00 | 0.00 | 0.00 | 100 | 1017.7 |
| 20260830154953 | 147 | 220 | 3.0 | 8.0 | 0.00 | 0.00 | 0.00 | 100 | 1017.6 |
| 20260830154443 | 147 | 109 | 1.0 | 8.0 | 0.00 | 0.00 | 0.00 | 100 | 1017.6 |
| 20260830153928 | 147 | 244 | 0.0 | 8.0 | 0.00 | 0.00 | 0.00 | 100 | 1017.6 |
| 20260830153429 | 147 | 222 | 3.0 | 9.0 | 0.00 | 0.00 | 0.00 | 100 | 1017.6 |
| 20260830152928 | 147 | 203 | 3.0 | 9.0 | 0.00 | 0.00 | 0.00 | 100 | 1017.6 |
| 20260830152700 | 147 | 194 | 5.0 | 8.0 | 0.00 | 0.00 | 0.00 | 100 | 1017.5 |
| 20260830151927 | 146 | 201 | 2.0 | 10.0 | 0.00 | 0.00 | 0.00 | 100 | 1017.5 |
| 20260830151427 | 146 | 191 | 2.0 | 10.0 | 0.00 | 0.00 | 0.00 | 100 | 1017.5 |
| 20260830150926 | 146 | 212 | 4.0 | 10.0 | 0.00 | 0.00 | 0.00 | 100 | 1017.6 |
| 20260830150426 | 146 | 185 | 4.0 | 10.0 | 0.00 | 0.00 | 0.00 | 100 | 1017.6 |
| 20260830150158 | 146 | 160 | 2.0 | 10.0 | 0.00 | 0.00 | 0.00 | 100 | 1017.6 |
| 20260830145427 | 145 | 205 | 6.0 | 10.0 | 0.00 | 0.00 | 0.00 | 100 | 1017.6 |
| 20260830144927 | 145 | 127 | 4.0 | 10.0 | 0.00 | 0.00 | 0.00 | 100 | 1017.5 |
| 20260830144423 | 145 | 192 | 5.0 | 11.0 | 0.00 | 0.00 | 0.00 | 100 | 1017.5 |
| 20260830144155 | 145 | 101 | 3.0 | 11.0 | 0.00 | 0.00 | 0.00 | 100 | 1017.5 |
| 20260830143420 | 145 | 127 | 4.0 | 9.0 | 0.00 | 0.00 | 0.00 | 100 | 1017.6 |
| 20260830142919 | 145 | 170 | 1.0 | 11.0 | 0.00 | 0.00 | 0.00 | 100 | 1017.6 |
| 20260830142419 | 145 | 39 | 1.0 | 11.0 | 0.00 | 0.00 | 0.00 | 100 | 1017.6 |
| 20260830141918 | 145 | 189 | 7.0 | 10.0 | 0.00 | 0.00 | 0.00 | 100 | 1017.5 |
| 20260830141419 | 145 | 213 | 4.0 | 11.0 | 0.00 | 0.00 | 0.00 | 100 | 1017.5 |
| 20260830141150 | 145 | 195 | 6.0 | 11.0 | 0.00 | 0.00 | 0.00 | 100 | 1017.5 |
| 20260830140418 | 144 | 206 | 5.0 | 11.0 | 0.00 | 0.00 | 0.00 | 100 | 1017.3 |
| 20260830140148 | 145 | 210 | 3.0 | 9.0 | 0.00 | 0.00 | 0.00 | 100 | 1017.2 |
| 20260830135418 | 144 | 157 | 5.0 | 11.0 | 0.00 | 0.00 | 0.00 | 100 | 1017.2 |
| 20260830134914 | 144 | 144 | 7.0 | 11.0 | 0.00 | 0.00 | 0.00 | 100 | 1017.3 |
| 20260830134414 | 144 | 174 | 4.0 | 8.0 | 0.00 | 0.00 | 0.00 | 100 | 1017.2 |
| 20260830133914 | 144 | 191 | 2.0 | 7.0 | 0.00 | 0.00 | 0.00 | 100 | 1017.1 |
| 20260830133414 | 144 | 125 | 0.0 | 7.0 | 0.00 | 0.00 | 0.00 | 100 | 1017.1 |
| 20260830132910 | 144 | 172 | 0.0 | 4.0 | 0.00 | 0.00 | 0.00 | 100 | 1017.0 |
| 20260830132411 | 144 | 188 | 0.0 | 0.0 | 0.00 | 0.00 | 0.00 | 100 | 1016.9 |
| 20260830131855 | 144 | 188 | 0.0 | 0.0 | 0.00 | 0.00 | 0.00 | 100 | 1016.9 |
| 20260830131348 | 143 | 188 | 0.0 | 0.0 | 0.00 | 0.00 | 0.00 | 1 | 1017.0 |
| 20260830131121 | 143 | 188 | 0.0 | 0.0 | 0.00 | 0.00 | 0.00 | 1 | 1016.9 |
| 20260830130332 | 143 | 188 | 0.0 | 0.0 | 0.00 | 0.00 | 0.00 | 3 | 1016.9 |
| 20260830125829 | 143 | 188 | 0.0 | 0.0 | 0.00 | 0.00 | 0.00 | 4 | 1016.9 |
| 20260830125324 | 143 | 188 | 0.0 | 0.0 | 0.00 | 0.00 | 0.00 | 5 | 1016.8 |
| 20260830124814 | 143 | 188 | 0.0 | 0.0 | 0.00 | 0.00 | 0.00 | 6 | 1016.8 |
| 20260830124309 | 143 | 188 | 0.0 | 0.0 | 0.00 | 0.00 | 0.00 | 7 | 1016.8 |
| 20260830123810 | 143 | 188 | 0.0 | 0.0 | 0.00 | 0.00 | 0.00 | 11 | 1016.8 |
| 20260830123248 | 143 | 188 | 0.0 | 0.0 | 0.00 | 0.00 | 0.00 | 11 | 1016.7 |
| 20260830122747 | 143 | 188 | 0.0 | 0.0 | 0.00 | 0.00 | 0.00 | 8 | 1016.6 |
| 20260830122457 | 143 | 188 | 0.0 | 0.0 | 0.00 | 0.00 | 0.00 | 8 | 1016.6 |
| 20260830121702 | 143 | 188 | 0.0 | 0.0 | 0.00 | 0.00 | 0.00 | 6 | 1016.6 |
| 20260830121147 | 143 | 188 | 0.0 | 0.0 | 0.00 | 0.00 | 0.00 | 6 | 1016.5 |
| 20260830120644 | 143 | 188 | 0.0 | 0.0 | 0.00 | 0.00 | 0.00 | 6 | 1016.4 |
| 20260830120128 | 143 | 188 | 0.0 | 0.0 | 0.00 | 0.00 | 0.00 | 5 | 1016.4 |
| 20260830115622 | 143 | 188 | 0.0 | 0.0 | 0.00 | 0.00 | 0.00 | 4 | 1016.4 |
| 20260830115102 | 143 | 188 | 0.0 | 0.0 | 0.00 | 0.00 | 0.00 | 4 | 1016.4 |
| 20260830114540 | 143 | 188 | 0.0 | 0.0 | 0.00 | 0.00 | 0.00 | 3 | 1016.4 |
| 20260830114033 | 143 | 188 | 0.0 | 0.0 | 0.00 | 0.00 | 0.00 | 3 | 1016.4 |
| 20260830113525 | 143 | 188 | 0.0 | 0.0 | 0.00 | 0.00 | 0.00 | 2 | 1016.4 |
| 20260830113255 | 143 | 188 | 0.0 | 0.0 | 0.00 | 0.00 | 0.00 | 1 | 1016.4 |
| 20260830112621 | 143 | 188 | 0.0 | 0.0 | 0.00 | 0.00 | 0.00 | 1 | 1016.3 |
| 20260830111444 | 143 | 188 | 0.0 | 0.0 | 0.00 | 0.00 | 0.00 | 100 | 1016.2 |
| 20260830110928 | 143 | 188 | 0.0 | 0.0 | 0.00 | 0.00 | 0.00 | 100 | 1016.1 |
| 20260830110655 | 143 | 188 | 0.0 | 0.0 | 0.00 | 0.00 | 0.00 | 100 | 1016.1 |
| 20260830105925 | 143 | 188 | 0.0 | 0.0 | 0.00 | 0.00 | 0.00 | 100 | 1016.2 |
| 20260830105412 | 143 | 188 | 0.0 | 0.0 | 0.00 | 0.00 | 0.00 | 100 | 1016.1 |
| 20260830105127 | 143 | 188 | 0.0 | 0.0 | 0.00 | 0.00 | 0.00 | 100 | 1016.1 |
| 20260830104333 | 143 | 188 | 0.0 | 0.0 | 0.00 | 0.00 | 0.00 | 100 | 1016.0 |
| 20260830103812 | 143 | 188 | 0.0 | 0.0 | 0.00 | 0.00 | 0.00 | 100 | 1016.0 |
| 20260830103304 | 143 | 188 | 0.0 | 0.0 | 0.00 | 0.00 | 0.00 | 100 | 1016.0 |
| 20260830102803 | 143 | 188 | 0.0 | 0.0 | 0.00 | 0.00 | 0.00 | 100 | 1015.9 |
| 20260830102250 | 143 | 188 | 0.0 | 0.0 | 0.00 | 0.00 | 0.00 | 100 | 1016.0 |